• In Belarus
  • List of Countries
  • For 7 days
  • Water Temperature
  • Satellite Maps
  • Weather Map
  • Weather Widgets
  • user-avatar
    Login

    Hourly Weather Bregenz

    Today, 17 July, Tuesday

    Time Temperature Precipitation Wind Pressure Humidity
    00:00 +10°C° 0 mm 1 mps 646 mmHg 89%
    01:00 +10°C° 0 mm 1 mps 646 mmHg 89%
    02:00 +10°C° 0 mm 1 mps 646 mmHg 89%
    03:00 +9°C° 0 mm 1 mps 646 mmHg 90%
    04:00 +9°C° 0 mm 1 mps 646 mmHg 90%
    05:00 +11°C° 0 mm 1 mps 646 mmHg 86%
    06:00 +12°C° 0 mm 1 mps 647 mmHg 83%
    07:00 +13°C° 0 mm 1 mps 647 mmHg 79%
    08:00 +15°C° 0.1 mm 1 mps 648 mmHg 72%
    09:00 +18°C° 0.1 mm 1 mps 648 mmHg 65%
    10:00 +18°C° 0.1 mm 2 mps 649 mmHg 58%
    11:00 +19°C° 0.2 mm 2 mps 649 mmHg 56%
    12:00 +19°C° 0.2 mm 2 mps 649 mmHg 54%
    13:00 +20°C° 0.2 mm 2 mps 649 mmHg 52%
    14:00 +20°C° 0.2 mm 2 mps 649 mmHg 53%
    15:00 +20°C° 0.2 mm 2 mps 649 mmHg 54%
    16:00 +20°C° 0.2 mm 2 mps 649 mmHg 55%
    17:00 +19°C° 0.1 mm 2 mps 649 mmHg 62%
    18:00 +19°C° 0.1 mm 1 mps 649 mmHg 68%
    19:00 +18°C° 0.1 mm 1 mps 649 mmHg 75%
    20:00 +15°C° 0.1 mm 1 mps 648 mmHg 79%
    21:00 +13°C° 0.1 mm 1 mps 648 mmHg 84%
    22:00 +12°C° 0.1 mm 1 mps 648 mmHg 89%
    23:00 +11°C° 0.1 mm 1 mps 648 mmHg 89%

    Tomorrow, 18 July, Wednesday

    Time Temperature Precipitation Wind Pressure Humidity
    00:00 +11°C° 0.1 mm 1 mps 648 mmHg 89%
    01:00 +10°C° 0.1 mm 1 mps 648 mmHg 90%
    02:00 +10°C° 0 mm 1 mps 648 mmHg 90%
    03:00 +10°C° 0 mm 1 mps 648 mmHg 90%
    04:00 +10°C° 0 mm 1 mps 648 mmHg 91%
    05:00 +11°C° 0 mm 1 mps 648 mmHg 87%
    06:00 +12°C° 0 mm 1 mps 648 mmHg 84%
    07:00 +14°C° 0 mm 1 mps 649 mmHg 81%
    08:00 +16°C° 0 mm 1 mps 649 mmHg 74%
    09:00 +18°C° 0 mm 1 mps 650 mmHg 67%
    10:00 +20°C° 0 mm 1 mps 650 mmHg 60%
    11:00 +21°C° 0 mm 1 mps 650 mmHg 57%
    12:00 +21°C° 0 mm 2 mps 650 mmHg 54%
    13:00 +23°C° 0 mm 2 mps 650 mmHg 51%
    14:00 +23°C° 0 mm 2 mps 650 mmHg 52%
    15:00 +23°C° 0 mm 2 mps 650 mmHg 54%
    16:00 +21°C° 0 mm 2 mps 649 mmHg 56%
    17:00 +20°C° 0.1 mm 2 mps 649 mmHg 64%
    18:00 +19°C° 0.1 mm 2 mps 649 mmHg 71%
    19:00 +18°C° 0.1 mm 2 mps 649 mmHg 79%
    20:00 +16°C° 0.1 mm 1 mps 649 mmHg 84%
    21:00 +15°C° 0.1 mm 1 mps 649 mmHg 89%
    22:00 +13°C° 0.1 mm 1 mps 648 mmHg 94%
    23:00 +13°C° 0.1 mm 1 mps 648 mmHg 94%

    Day after tomorrow, 19 July, Thursday

    Time Temperature Precipitation Wind Pressure Humidity
    00:00 +12°C° 0.1 mm 1 mps 648 mmHg 94%
    01:00 +12°C° 0.1 mm 1 mps 648 mmHg 94%
    02:00 +12°C° 0 mm 1 mps 648 mmHg 94%
    03:00 +12°C° 0 mm 1 mps 648 mmHg 94%
    04:00 +10°C° 0 mm 0 mps 648 mmHg 93%
    05:00 +11°C° 0 mm 0 mps 648 mmHg 90%
    06:00 +13°C° 0 mm 0 mps 648 mmHg 86%
    07:00 +14°C° 0 mm 0 mps 649 mmHg 83%
    08:00 +18°C° 0 mm 1 mps 649 mmHg 74%
    09:00 +19°C° 0 mm 1 mps 650 mmHg 65%
    10:00 +21°C° 0 mm 1 mps 650 mmHg 57%
    11:00 +22°C° 0 mm 1 mps 650 mmHg 53%
    12:00 +23°C° 0 mm 2 mps 650 mmHg 50%
    13:00 +24°C° 0 mm 2 mps 650 mmHg 46%
    14:00 +24°C° 0 mm 2 mps 650 mmHg 47%
    15:00 +24°C° 0 mm 2 mps 650 mmHg 49%
    16:00 +24°C° 0 mm 2 mps 650 mmHg 50%
    17:00 +21°C° 0.1 mm 2 mps 650 mmHg 59%
    18:00 +20°C° 0.1 mm 2 mps 649 mmHg 67%
    19:00 +19°C° 0.1 mm 2 mps 649 mmHg 76%
    20:00 +17°C° 0.1 mm 2 mps 649 mmHg 81%
    21:00 +15°C° 0.1 mm 1 mps 648 mmHg 86%
    22:00 +13°C° 0.1 mm 1 mps 648 mmHg 91%
    23:00 +13°C° 0 mm 1 mps 648 mmHg 90%

    20 July, Friday

    Time Temperature Precipitation Wind Pressure Humidity
    00:00 +13°C° 0 mm 1 mps 648 mmHg 89%
    01:00 +13°C° 0 mm 1 mps 647 mmHg 89%
    02:00 +12°C° 0 mm 1 mps 647 mmHg 88%
    03:00 +12°C° 0 mm 1 mps 647 mmHg 86%
    04:00 +12°C° 0 mm 1 mps 647 mmHg 85%
    05:00 +13°C° 0 mm 1 mps 647 mmHg 82%
    06:00 +15°C° 0 mm 1 mps 648 mmHg 78%
    07:00 +16°C° 0 mm 1 mps 648 mmHg 75%
    08:00 +19°C° 0.1 mm 1 mps 648 mmHg 68%
    09:00 +21°C° 0.1 mm 1 mps 649 mmHg 61%
    10:00 +23°C° 0.1 mm 1 mps 649 mmHg 54%
    11:00 +23°C° 0.3 mm 1 mps 649 mmHg 54%
    12:00 +23°C° 0.3 mm 1 mps 649 mmHg 53%
    13:00 +24°C° 0.3 mm 2 mps 649 mmHg 53%
    14:00 +23°C° 1 mm 1 mps 649 mmHg 57%
    15:00 +22°C° 1 mm 1 mps 648 mmHg 62%
    16:00 +22°C° 1 mm 1 mps 648 mmHg 67%
    17:00 +20°C° 1.2 mm 1 mps 648 mmHg 73%
    18:00 +19°C° 1.2 mm 1 mps 647 mmHg 79%
    19:00 +18°C° 1.2 mm 1 mps 647 mmHg 86%
    20:00 +16°C° 0.9 mm 1 mps 647 mmHg 87%
    21:00 +15°C° 0.9 mm 1 mps 647 mmHg 89%
    22:00 +14°C° 0.9 mm 2 mps 647 mmHg 90%
    23:00 +14°C° 0.8 mm 2 mps 646 mmHg 91%

    21 July, Saturday

    Time Temperature Precipitation Wind Pressure Humidity
    00:00 +13°C° 0.8 mm 1 mps 646 mmHg 92%
    01:00 +13°C° 0.8 mm 1 mps 646 mmHg 93%
    02:00 +13°C° 0.3 mm 1 mps 646 mmHg 93%
    03:00 +13°C° 0.3 mm 1 mps 646 mmHg 94%
    04:00 +12°C° 0.3 mm 1 mps 645 mmHg 94%
    05:00 +13°C° 0.4 mm 1 mps 646 mmHg 94%
    06:00 +13°C° 0.4 mm 1 mps 646 mmHg 93%
    07:00 +13°C° 0.4 mm 1 mps 646 mmHg 93%
    08:00 +14°C° 0.4 mm 1 mps 646 mmHg 89%
    09:00 +15°C° 0.4 mm 1 mps 646 mmHg 85%
    10:00 +16°C° 0.4 mm 1 mps 647 mmHg 81%
    11:00 +16°C° 0.5 mm 1 mps 647 mmHg 79%
    12:00 +17°C° 0.5 mm 2 mps 647 mmHg 78%
    13:00 +17°C° 0.5 mm 2 mps 647 mmHg 76%
    14:00 +17°C° 0.9 mm 2 mps 647 mmHg 79%
    15:00 +17°C° 0.9 mm 2 mps 647 mmHg 83%
    16:00 +16°C° 0.9 mm 2 mps 647 mmHg 87%
    17:00 +15°C° 1.2 mm 2 mps 647 mmHg 89%
    18:00 +15°C° 1.2 mm 2 mps 647 mmHg 91%
    19:00 +14°C° 1.2 mm 2 mps 646 mmHg 94%
    20:00 +13°C° 0.9 mm 2 mps 647 mmHg 95%
    21:00 +13°C° 0.9 mm 2 mps 647 mmHg 96%
    22:00 +12°C° 0.9 mm 2 mps 647 mmHg 97%
    23:00 +12°C° 0.5 mm 2 mps 647 mmHg 97%

    22 July, Sunday

    Time Temperature Precipitation Wind Pressure Humidity
    00:00 +10°C° 0.5 mm 2 mps 647 mmHg 97%
    01:00 +10°C° 0.5 mm 2 mps 647 mmHg 97%
    02:00 +11°C° 0.3 mm 1 mps 647 mmHg 97%
    03:00 +11°C° 0.3 mm 1 mps 647 mmHg 97%
    04:00 +11°C° 0.3 mm 1 mps 647 mmHg 97%
    05:00 +11°C° 0.3 mm 1 mps 647 mmHg 97%
    06:00 +11°C° 0.3 mm 1 mps 647 mmHg 96%
    07:00 +11°C° 0.3 mm 1 mps 647 mmHg 96%
    08:00 +12°C° 0.2 mm 1 mps 647 mmHg 94%
    09:00 +13°C° 0.2 mm 1 mps 647 mmHg 92%
    10:00 +13°C° 0.2 mm 1 mps 648 mmHg 90%
    11:00 +14°C° 0.3 mm 1 mps 648 mmHg 86%
    12:00 +16°C° 0.3 mm 2 mps 648 mmHg 81%
    13:00 +17°C° 0.3 mm 2 mps 648 mmHg 77%
    14:00 +17°C° 0.7 mm 2 mps 648 mmHg 79%
    15:00 +17°C° 0.7 mm 2 mps 648 mmHg 80%
    16:00 +16°C° 0.7 mm 2 mps 648 mmHg 82%
    17:00 +16°C° 0.4 mm 1 mps 648 mmHg 85%
    18:00 +15°C° 0.4 mm 1 mps 648 mmHg 87%
    19:00 +14°C° 0.4 mm 1 mps 648 mmHg 90%
    20:00 +13°C° 0.1 mm 1 mps 648 mmHg 91%
    21:00 +12°C° 0.1 mm 1 mps 648 mmHg 92%
    22:00 +11°C° 0.1 mm 1 mps 648 mmHg 93%
    23:00 +11°C° 0 mm 1 mps 648 mmHg 93%
    Show more